HOURLY OBS INDEX

028

Peninsula - south

LOCKHART RIVER AIRPORT

Site: 028008
Alt: 18.5m
155km E of WEIPA


  Time     Wind        Temp  DP   Baro     Rain since   Rain past  Vis(m), Cloud(base in m), Weather
  local        km/h                         9am  last   hr   10m    
Tue 20:00   SE 26/ 35  23.3 18.6  1017.5    0.2   0.0   0.0   0.0   10000|OC 840 
Tue 20:30   SE 24/ 35  23.3 18.4  1017.7    0.2   0.0   0.0   0.0   10000|SC 840 OC1380 OC1590 
Tue 21:00   SE 22/ 30  23.1 18.2  1018.1    0.2   0.0   0.0   0.0   10000|SC 750 BR1440 OC1590 
Tue 21:30   SE 22/ 32  23.0 18.3  1018.3    0.2   0.0   0.0   0.0   10000|BR 780 OC1530 
Tue 22:00   SE 20/ 30  22.6 18.4  1018.1    0.2   0.0   0.0   0.0   10000|BR 780 OC1710 
Tue 22:30   SE 22/ 32  22.8 18.6  1018.1    0.2   0.0   0.0   0.0   10000|OC 780 
Tue 23:00   SE 24/ 30  23.1 18.8  1017.8    0.2   0.0   0.0   0.0   10000|OC 780 
Tue 23:30   SE 22/ 33  23.1 19.1  1017.6    0.2   0.0   0.0   0.0   10000|OC 720 
Wed 00:00   SE 22/ 33  23.3 19.2  1017.6    0.2   0.0   0.0   0.0   10000|SC 660 OC 810 
Wed 00:30   SE 20/ 30  23.4 18.7  1017.4    0.2   0.0   0.0   0.0   10000|OC 810 OC 960 
Wed 01:00   SE 24/ 32  23.3 18.8  1017.2    0.2   0.0   0.0   0.0   10000|OC 750 
Wed 01:00   SE 24/ 32  23.3 18.8  1017.2    0.2   0.0  ----   0.0   10000|OC 750 

PALMERVILLE

Site: 028004
Alt: 203.8m
138km WSW of COOKTOWN


  Time     Wind        Temp  DP   Baro     Rain since   Rain past  Vis(m), Cloud(base in m), Weather
  local        km/h                         9am  last   hr   10m    
Tue 20:00   NE  9/ 17  21.6  8.8  1017.9    0.0   0.0   0.0   0.0   ----- 
Tue 20:30   NE  9/ 15  20.9  8.5  1018.6    0.0   0.0   0.0   0.0   ----- 
Tue 21:00  NNE  9/ 15  20.3  8.6  1018.7    0.0   0.0   0.0   0.0   ----- 
Tue 21:30   NE  9/ 17  19.4  7.8  1018.8    0.0   0.0   0.0   0.0   ----- 
Tue 22:00    E  7/  9  18.1  7.8  1018.8    0.0   0.0   0.0   0.0   ----- 
Tue 22:30  ENE  9/ 11  17.5  7.8  1019.0    0.0   0.0   0.0   0.0   ----- 
Tue 23:00   NE  7/ 13  17.3  8.2  1019.0    0.0   0.0   0.0   0.0   ----- 
Tue 23:30  ENE  7/ 11  16.7  8.1  1018.8    0.0   0.0   0.0   0.0   ----- 
Wed 00:00  ENE  7/ 11  16.4  8.4  1018.9    0.0   0.0   0.0   0.0   ----- 
Wed 00:30  ENE  7/  9  15.8  8.5  1018.9    0.0   0.0   0.0   0.0   ----- 
Wed 01:00  ENE  6/  7  14.5  8.7  1018.8    0.0   0.0   0.0   0.0   ----- 
Wed 01:00  ENE  6/  7  14.5  8.7  1018.8    0.0   0.0  ----   0.0   -----